Hamilton Island, Australia

9:41 AM AEST on August 18, 2017 (GMT +1000)
Hamilton Island

Weather History for YBHM - August, 2014

Change the Weather History Date:

Thursday, August 14, 2014

  Actual Average Record
Temperature  
Mean Temperature 70 °F -  
Max Temperature 73 °F - - ()
Min Temperature 66 °F - - ()
Cooling Degree Days 4    
Growing Degree Days 20 (Base 50)    
Moisture  
Dew Point 62 °F    
Average Humidity 77    
Maximum Humidity 83    
Minimum Humidity 61    
Precipitation  
Precipitation 0.00 in - - ()
Sea Level Pressure  
Sea Level Pressure 30.17 in    
Wind  
Wind Speed 25 mph ()    
Max Wind Speed 33 mph    
Max Gust Speed -    
Visibility 6.2 miles    
Events      
T = Trace of Precipitation, MM = Missing Value Source: Averaged Metar Reports

Daily Weather History Graph

Daily Weather History Graph

Search for Another Location

Airport or City:

Trip Planner

Search our weather history database for the weather conditions in past years. The results will help you decide how hot, cold, wet, or windy it might be!

Date:

Astronomy

Aug. 14, 2014 Rise Set
Actual Time 6:27 AM AEST 5:50 PM AEST
Civil Twilight 6:04 AM AEST 6:13 PM AEST
Nautical Twilight 5:38 AM AEST 6:39 PM AEST
Astronomical Twilight 5:12 AM AEST 7:05 PM AEST
Moon 9:30 PM AEST (8/14) 8:48 AM AEST (8/14)
Length of Visible Light 12h 08m
Length of Day
11h 23m
Waning Gibbous, 84% of the Moon is Illuminated
Aug 14
Waning Gibbous
Aug 17
Last Quarter
Aug 26
New
Sep 2
First Quarter
Sep 9
Full

Hourly Weather History & Observations

Time (AEST) Temp. Dew Point Humidity Pressure Visibility Wind Dir Wind Speed Gust Speed Precip Events Conditions
12:00 AM 68 °F 60 °F 70% 30.19 in - SE 24.2 mph - -   Overcast
12:00 AM 68.0 °F 60.8 °F 78% 30.18 in 6.2 mi SE 24.2 mph - N/A   Scattered Clouds
1:00 AM 68.0 °F 60.8 °F 78% 30.18 in 6.2 mi SE 24.2 mph - N/A   Mostly Cloudy
1:30 AM 68.0 °F 60.8 °F 78% 30.18 in 6.2 mi SE 24.2 mph - N/A   Mostly Cloudy
2:00 AM 68.0 °F 62.6 °F 83% 30.18 in 6.2 mi SE 23.0 mph - N/A   Mostly Cloudy
2:30 AM 68.0 °F 60.8 °F 78% 30.15 in 6.2 mi SE 25.3 mph - N/A   Scattered Clouds
3:00 AM 68 °F 61 °F 71% 30.17 in - SE 26.5 mph - -   Overcast
3:00 AM 68.0 °F 60.8 °F 78% 30.15 in 6.2 mi SE 26.5 mph - N/A   Scattered Clouds
3:30 AM 68.0 °F 60.8 °F 78% 30.15 in 6.2 mi SE 21.9 mph - N/A   Mostly Cloudy
4:00 AM 68.0 °F 60.8 °F 78% 30.15 in 6.2 mi SE 24.2 mph - N/A   Mostly Cloudy
4:30 AM 68.0 °F 60.8 °F 78% 30.15 in 6.2 mi SE 25.3 mph - N/A   Overcast
5:00 AM 68.0 °F 60.8 °F 78% 30.15 in 6.2 mi SE 24.2 mph - N/A   Mostly Cloudy
5:30 AM 68.0 °F 60.8 °F 78% 30.15 in 6.2 mi SE 27.6 mph - N/A   Mostly Cloudy
6:00 AM 68 °F 61 °F 71% 30.17 in - SE 28.8 mph - -   Overcast
6:00 AM 68.0 °F 60.8 °F 78% 30.15 in 6.2 mi SE 28.8 mph - N/A   Scattered Clouds
6:30 AM 68.0 °F 60.8 °F 78% 30.15 in 6.2 mi SE 27.6 mph - N/A   Scattered Clouds
7:00 AM 68.0 °F 59.0 °F 73% 30.18 in 6.2 mi SE 28.8 mph - N/A   Scattered Clouds
7:30 AM 69.8 °F 60.8 °F 73% 30.18 in 6.2 mi SE 26.5 mph - N/A   Mostly Cloudy
8:00 AM 69.8 °F 60.8 °F 73% 30.18 in 6.2 mi ESE 27.6 mph - N/A   Mostly Cloudy
8:30 AM 69.8 °F 62.6 °F 78% 30.21 in 6.2 mi ESE 27.6 mph - N/A   Scattered Clouds
9:00 AM 71 °F 61 °F 63% 30.21 in - ESE 28.8 mph - -   Overcast
9:00 AM 71.6 °F 60.8 °F 69% 30.21 in 6.2 mi ESE 28.8 mph - N/A   Scattered Clouds
9:30 AM 71.6 °F 60.8 °F 69% 30.21 in 6.2 mi ESE 29.9 mph - N/A   Scattered Clouds
11:30 AM 71.6 °F 62.6 °F 73% 30.21 in 6.2 mi ESE 29.9 mph - N/A   Overcast
12:00 PM 72 °F 61 °F 61% 30.19 in - SE 28.8 mph - -   Overcast
12:00 PM 73.4 °F 60.8 °F 65% 30.18 in 6.2 mi SE 28.8 mph - N/A   Mostly Cloudy
2:00 PM 69.8 °F 60.8 °F 73% 30.15 in 6.2 mi SE 33.4 mph - N/A   Mostly Cloudy
2:30 PM 69.8 °F 60.8 °F 73% 30.15 in 6.2 mi SE 31.1 mph - N/A   Overcast
3:00 PM 70 °F 62 °F 70% 30.15 in - SE 28.8 mph - -   Overcast
3:00 PM 69.8 °F 62.6 °F 78% 30.15 in 6.2 mi SE 28.8 mph - N/A   Overcast
3:30 PM 69.8 °F 62.6 °F 78% 30.15 in 6.2 mi SE 26.5 mph - N/A   Overcast
4:00 PM 69.8 °F 62.6 °F 78% 30.15 in 6.2 mi SE 27.6 mph - N/A   Overcast
4:15 PM 69.8 °F 62.6 °F 78% 30.15 in 6.2 mi SE 26.5 mph - N/A   Overcast
4:27 PM 69.8 °F 62.6 °F 78% 30.15 in 6.2 mi SE 27.6 mph - N/A   Overcast
4:31 PM 69.8 °F 62.6 °F 78% 30.15 in 6.2 mi SE 28.8 mph - N/A   Overcast
4:57 PM 69.8 °F 62.6 °F 78% 30.15 in 6.2 mi SE 28.8 mph - N/A   Overcast
5:00 PM 69.8 °F 62.6 °F 78% 30.15 in 6.2 mi SE 28.8 mph - N/A   Overcast
5:30 PM 69.8 °F 62.6 °F 78% 30.18 in 6.2 mi SE 27.6 mph - N/A   Overcast
6:00 PM 69 °F 63 °F 74% 30.19 in - SE 27.6 mph - -   Overcast
6:00 PM 68.0 °F 62.6 °F 83% 30.18 in 6.2 mi SE 27.6 mph - N/A   Overcast
6:30 PM 68.0 °F 62.6 °F 83% 30.18 in 6.2 mi SE 26.5 mph - N/A   Overcast
7:00 PM 68.0 °F 62.6 °F 83% 30.18 in 6.2 mi SE 28.8 mph - N/A   Overcast
7:10 PM 68.0 °F 62.6 °F 83% 30.18 in 6.2 mi SE 27.6 mph - N/A   Overcast
7:30 PM 68.0 °F 62.6 °F 83% 30.18 in 6.2 mi SE 31.1 mph - N/A   Overcast
8:00 PM 68.0 °F 62.6 °F 83% 30.18 in 6.2 mi SE 32.2 mph - N/A   Overcast
8:30 PM 69.8 °F 62.6 °F 78% 30.18 in 6.2 mi ESE 32.2 mph - N/A   Overcast
8:31 PM 68.0 °F 62.6 °F 83% 30.18 in 6.2 mi ESE 32.2 mph - N/A   Overcast
9:00 PM 69 °F 63 °F 76% 30.19 in - SE 29.9 mph - -   Overcast
9:00 PM 68.0 °F 62.6 °F 83% 30.18 in 6.2 mi SE 29.9 mph - N/A   Overcast
9:30 PM 69.8 °F 62.6 °F 78% 30.18 in 6.2 mi ESE 31.1 mph - N/A   Overcast
10:00 PM 68.0 °F 62.6 °F 83% 30.18 in 6.2 mi ESE 31.1 mph - N/A   Overcast
10:30 PM 69.8 °F 62.6 °F 78% 30.18 in 6.2 mi ESE 29.9 mph - N/A   Overcast
11:00 PM 69.8 °F 62.6 °F 78% 30.18 in 6.2 mi ESE 31.1 mph - N/A   Overcast
11:28 PM 69.8 °F 62.6 °F 78% 30.18 in 6.2 mi SE 31.1 mph - N/A   Overcast
11:30 PM 69.8 °F 64.4 °F 83% 30.18 in 6.2 mi SE 29.9 mph - N/A   Overcast
11:41 PM 69.8 °F 62.6 °F 78% 30.15 in 6.2 mi ESE 29.9 mph - N/A   Overcast